Weather History for Kendall, FL

Change the Weather History Date:

Saturday, May 3, 2014

  Actual Average Record
Temperature  
Mean Temperature 82 °F -  
Max Temperature 93 °F 83 °F 93 °F (2014)
Min Temperature 75 °F 65 °F 54 °F (1992)
Cooling Degree Days 18    
Growing Degree Days 32 (Base 50)    
Moisture  
Dew Point 71 °F    
Average Humidity 72    
Maximum Humidity 90    
Minimum Humidity 46    
Precipitation  
Precipitation 0.02 in - - ()
Sea Level Pressure  
Sea Level Pressure 29.96 in    
Wind  
Wind Speed 6 mph (SW)    
Max Wind Speed 16 mph    
Max Gust Speed 23 mph    
Visibility 10 miles    
Events Rain , Thunderstorm    
Averages and records for this station are not official NWS values.
T = Trace of Precipitation, MM = Missing Value Source: NWS Daily Summary

Daily Weather History Graph

Daily Weather History Graph

Search for Another Location

Airport:

Trip Planner

Search our weather history database for the weather conditions in past years. The results will help you decide how hot, cold, wet, or windy it might be!

Date:

Astronomy

May. 03, 2014 Rise Set
Actual Time 6:43 AM EDT 7:53 PM EDT
Civil Twilight 6:19 AM EDT 8:18 PM EDT
Nautical Twilight 5:50 AM EDT 8:47 PM EDT
Astronomical Twilight 5:21 AM EDT 9:16 PM EDT
Moon 10:16 AM EDT (5/3) 11:55 PM EDT (5/3)
Length of Visible Light 13h 58m
Length of Day
13h 10m
Waxing Crescent, 19% of the Moon is Illuminated
May 3
Waxing Crescent
May 6
First Quarter
May 14
Full
May 21
Last Quarter
May 28
New

Hourly Weather History & Observations

Time (EDT) Temp. Heat Index Dew Point Humidity Pressure Visibility Wind Dir Wind Speed Gust Speed Precip Events Conditions
12:53 AM 77.0 °F - 70.0 °F 79% 29.97 in 10.0 mi Calm Calm - N/A   Partly Cloudy
1:16 AM 77.0 °F - 71.1 °F 82% 29.97 in 10.0 mi NNW 5.8 mph - N/A   Mostly Cloudy
1:49 AM 78.8 °F - 71.6 °F 78% 29.96 in 10.0 mi NNE 4.6 mph - N/A   Overcast
1:53 AM 78.1 °F - 71.1 °F 79% 29.96 in 10.0 mi NE 4.6 mph - N/A   Mostly Cloudy
2:53 AM 78.1 °F - 71.1 °F 79% 29.94 in 10.0 mi ENE 5.8 mph - N/A   Clear
3:53 AM 77.0 °F - 71.1 °F 82% 29.93 in 10.0 mi East 4.6 mph - N/A   Partly Cloudy
4:53 AM 78.1 °F - 70.0 °F 76% 29.94 in 10.0 mi East 3.5 mph - N/A   Clear
5:53 AM 77.0 °F - 71.6 °F 83% 29.93 in 10.0 mi SE 3.5 mph - N/A Rain Light Rain
6:53 AM 77.0 °F - 73.9 °F 90% 29.94 in 10.0 mi SSW 4.6 mph - 0.01 in   Clear
7:53 AM 75.9 °F - 72.0 °F 87% 29.94 in 10.0 mi South 5.8 mph - N/A   Partly Cloudy
8:53 AM 77.0 °F - 73.0 °F 88% 29.94 in 10.0 mi South 6.9 mph - N/A   Clear
9:53 AM 80.1 °F 84.5 °F 73.9 °F 81% 29.96 in 10.0 mi SSW 6.9 mph - N/A   Clear
10:53 AM 86.0 °F 90.7 °F 70.0 °F 59% 29.97 in 10.0 mi SW 8.1 mph - N/A   Partly Cloudy
11:53 AM 87.1 °F 92.8 °F 71.1 °F 59% 29.99 in 10.0 mi SW 8.1 mph - N/A   Mostly Cloudy
12:53 PM 90.0 °F 93.6 °F 68.0 °F 48% 29.97 in 10.0 mi SSW 9.2 mph 18.4 mph N/A   Partly Cloudy
1:53 PM 90.0 °F 94.5 °F 69.1 °F 50% 29.94 in 10.0 mi SSW 12.7 mph - N/A   Partly Cloudy
2:50 PM 89.6 °F 92.2 °F 66.2 °F 46% 29.94 in 10.0 mi SSW 11.5 mph 20.7 mph N/A Thunderstorm Thunderstorm
2:53 PM 90.0 °F 93.6 °F 68.0 °F 48% 29.94 in 10.0 mi SSW 13.8 mph 19.6 mph N/A Thunderstorm Thunderstorm
3:05 PM 90.0 °F 93.6 °F 68.0 °F 48% 29.93 in 10.0 mi SW 16.1 mph 23.0 mph N/A   Scattered Clouds
3:17 PM 89.1 °F 92.1 °F 66.9 °F 48% 29.94 in 10.0 mi SW 16.1 mph 23.0 mph N/A Thunderstorm Thunderstorm
3:38 PM 82.9 °F 85.8 °F 68.0 °F 60% 29.94 in 10.0 mi WNW 12.7 mph - 0.00 in Thunderstorm Scattered Clouds
3:53 PM 82.4 °F 85.4 °F 68.0 °F 62% 29.94 in 10.0 mi WNW 11.5 mph - N/A   Mostly Cloudy
4:53 PM 80.1 °F 83.2 °F 70.0 °F 71% 29.94 in 10.0 mi West 12.7 mph - 0.00 in   Partly Cloudy
5:31 PM 78.1 °F - 72.0 °F 81% 29.95 in 10.0 mi West 9.2 mph - 0.00 in Rain , Thunderstorm Light Rain
5:53 PM 79.0 °F - 71.1 °F 77% 29.95 in 10.0 mi NW 5.8 mph - 0.01 in Rain , Thunderstorm Light Rain
6:21 PM 80.1 °F 83.8 °F 72.0 °F 76% 29.96 in 10.0 mi West 4.6 mph - 0.00 in   Clear
6:53 PM 80.1 °F 83.8 °F 72.0 °F 76% 29.96 in 10.0 mi Calm Calm - 0.00 in   Partly Cloudy
7:53 PM 77.0 °F - 73.0 °F 88% 29.97 in 10.0 mi West 4.6 mph - N/A   Clear
8:53 PM 77.0 °F - 73.0 °F 88% 29.99 in 10.0 mi WNW 4.6 mph - N/A   Partly Cloudy
9:53 PM 77.0 °F - 71.1 °F 82% 30.00 in 10.0 mi NNE 4.6 mph - N/A   Clear
10:53 PM 77.0 °F - 72.0 °F 84% 30.01 in 10.0 mi Calm Calm - N/A   Clear
11:53 PM 78.1 °F - 71.1 °F 79% 30.01 in 10.0 mi SSE 3.5 mph - N/A   Clear